TimeCST,TemperatureF,Dew PointF,Humidity,Sea Level PressureIn,VisibilityMPH,Wind Direction,Wind SpeedMPH,Gust SpeedMPH,PrecipitationIn,Events,Conditions,WindDirDegrees,DateUTC
12:53 AM,46.9,35.1,63,30.28,10.0,NNE,3.5,-,N/A,,Clear,30,2012-11-15 06:53:00
1:53 AM,45.0,36.0,71,30.27,10.0,North,4.6,-,N/A,,Clear,10,2012-11-15 07:53:00
2:53 AM,44.1,35.1,71,30.26,10.0,North,-9999.0,-,N/A,,Clear,0,2012-11-15 08:53:00
3:53 AM,44.1,36.0,73,30.25,10.0,NNE,6.9,-,N/A,,Clear,20,2012-11-15 09:53:00
4:53 AM,45.0,35.1,68,30.25,10.0,North,3.5,-,N/A,,Clear,10,2012-11-15 10:53:00
5:53 AM,43.0,36.0,76,30.26,10.0,North,6.9,-,N/A,,Scattered Clouds,10,2012-11-15 11:53:00
6:53 AM,43.0,36.0,76,30.27,10.0,NNE,6.9,-,N/A,,Clear,20,2012-11-15 12:53:00
7:53 AM,48.9,39.9,71,30.28,10.0,NNE,6.9,-,N/A,,Clear,30,2012-11-15 13:53:00
8:53 AM,59.0,43.0,55,30.30,10.0,NNE,5.8,-,N/A,,Clear,30,2012-11-15 14:53:00
9:53 AM,64.0,45.0,50,30.30,10.0,ENE,11.5,-,N/A,,Overcast,60,2012-11-15 15:53:00
10:53 AM,66.0,46.0,48,30.30,10.0,ENE,11.5,-,N/A,,Overcast,70,2012-11-15 16:53:00
11:53 AM,69.1,45.0,42,30.28,10.0,ESE,6.9,-,N/A,,Overcast,110,2012-11-15 17:53:00
12:53 PM,70.0,39.9,33,30.24,10.0,Variable,4.6,-,N/A,,Overcast,0,2012-11-15 18:53:00
1:53 PM,70.0,45.0,41,30.23,10.0,ESE,5.8,-,N/A,,Overcast,120,2012-11-15 19:53:00
2:53 PM,69.1,46.9,45,30.21,10.0,SE,10.4,-,N/A,,Overcast,130,2012-11-15 20:53:00
3:53 PM,66.9,48.0,51,30.20,10.0,ESE,10.4,-,N/A,,Overcast,120,2012-11-15 21:53:00
4:53 PM,66.0,48.0,52,30.21,10.0,ESE,8.1,-,N/A,,Overcast,120,2012-11-15 22:53:00
5:53 PM,64.0,48.0,56,30.23,10.0,East,8.1,-,N/A,,Overcast,90,2012-11-15 23:53:00
6:53 PM,63.0,46.0,54,30.24,10.0,East,8.1,-,N/A,,Overcast,100,2012-11-16 00:53:00
7:53 PM,63.0,46.0,54,30.27,10.0,East,5.8,-,N/A,,Overcast,90,2012-11-16 01:53:00
8:53 PM,62.1,45.0,53,30.27,10.0,East,6.9,-,N/A,,Overcast,80,2012-11-16 02:53:00
9:53 PM,61.0,46.0,58,30.28,10.0,NE,3.5,-,N/A,,Overcast,50,2012-11-16 03:53:00
10:53 PM,60.1,46.0,60,30.27,10.0,ENE,5.8,-,N/A,,Overcast,60,2012-11-16 04:53:00
11:53 PM,61.0,45.0,56,30.27,10.0,ENE,4.6,-,N/A,,Overcast,60,2012-11-16 05:53:00